Lexington Weather

Lexington, Massachusetts, USA

43°F
9/19/2020 7:33am 
  • Lexington Conditions: Clear
  • Temperature: 43.0°F / 6.1°CColder 0.3°F than last hour.
  • Dew Point: 34.9°FDecreased 1.1°Fsince last hour.
  • Relative Humidity: 73%Decreased 2.0% since last hour.
  • Wind: Wind from NNE NNE Calm, 10-min avg: 1 mph, gust: 2 mph
  • Barometer: 30.23 inRising 0.03  inHg/hr Rising Slowly
  • Visibility: 10 miles
  • Rain Today: 0.00 in
  •   
Southeast Middlesex County - Special Weather Statement
 - SEE ALL NEARBY ALERTS -

Regional Weather Roundup
for Boston / Norton, MA

        
000
ASUS41 KBOX 171804
RWRBOX

REGIONAL WEATHER ROUNDUP
NATIONAL WEATHER SERVICE BOSTON/NORTON MA
200 PM EDT THU SEP 17 2020

NOTE:  "FAIR" INDICATES FEW OR NO CLOUDS BELOW 12,000 FEET WITH NO 
SIGNIFICANT WEATHER AND/OR OBSTRUCTIONS TO VISIBILITY.

MAZALL-171900-
EASTERN MASSACHUSETTS
  
CITY           SKY/WX    TMP DP  RH WIND       PRES   REMARKS
BOSTON         PTSUNNY   77  52  41 SW8       29.98F                  
6HR MIN TEMP:  61; 6HR MAX TEMP:  77;                                

BEVERLY        PTSUNNY   76  52  43 W9        29.96F                  
LAWRENCE       MOSUNNY   74  57  55 NW6       29.98F                  
BEDFORD        MOSUNNY   76  54  46 S7        29.97F                  
BLUE HILL        N/A     74  56  53 SW9       29.98F                  
NORWOOD        MOSUNNY   77  56  48 SW10G18   29.97F                  
MARSHFIELD     PTSUNNY   77  59  53 SW12G17   29.97F                  
PLYMOUTH       PTSUNNY   76  59  55 SW13G22   29.99F                  
TAUNTON        PTSUNNY   77  59  53 SW13G18   29.98F                  
NEW BEDFORD    PTSUNNY   75  62  64 S12       30.00F                  
$$

MAZALL-171900-
CAPE COD AND THE ISLANDS
  
CITY           SKY/WX    TMP DP  RH WIND       PRES   REMARKS
FALMOUTH       MOSUNNY   73  63  68 SW13G21   30.01F                  
HYANNIS        PTSUNNY   74  63  68 S12       30.00F                  
CHATHAM        PTSUNNY   73  64  73 SW8G16    30.03F                  
PROVINCETOWN   PTSUNNY   74  62  66 SW13      30.00F                  
NANTUCKET      CLOUDY    71  65  81 S9        30.03F                  
MARTHAS VNYRD  PTSUNNY   74  62  66 SW12      30.02F                  
$$
 
MAZALL-171900-
CENTRAL AND WESTERN MASSACHUSETTS
  
CITY           SKY/WX    TMP DP  RH WIND       PRES   REMARKS
WORCESTER      MOSUNNY   71  53  52 SW7       30.01F                  
6HR MIN TEMP:  59; 6HR MAX TEMP:  71;                                

FITCHBURG      MOSUNNY   77  53  43 NW9       29.99F                  
ORANGE         MOSUNNY   74  55  51 W8        30.00F                  
SPRINGFIELD    NOT AVBL                                               
WESTFIELD      MOSUNNY   76  57  51 S8        29.98F                  
NORTH ADAMS    PTSUNNY   70  57  63 VRB6      30.01F                  
PITTSFIELD     MOSUNNY   69  55  60 W7        30.01F                  
$$
 
RIZALL-171900-
RHODE ISLAND
  
CITY           SKY/WX    TMP DP  RH WIND       PRES   REMARKS
PROVIDENCE     PTSUNNY   78  59  51 S16       29.99F                  
6HR MIN TEMP:  60; 6HR MAX TEMP:  78;                                

NEWPORT        PTSUNNY   73  64  73 S10       30.01F                  
BLOCK ISLAND   PTSUNNY   71  63  75 SW14      30.03F                  
SMITHFIELD     PTSUNNY   74  58  57 W13       30.00F                  
WESTERLY       PTSUNNY   73  60  63 SW10      30.02F                  
$$
 
CTZALL-171900-
CONNECTICUT
  
CITY           SKY/WX    TMP DP  RH WIND       PRES   REMARKS
BRADLEY INTL   CLOUDY    77  52  41 SW10      29.98F                  
6HR MIN TEMP:  58; 6HR MAX TEMP:  77;                                

HARTFORD       PTSUNNY   77  53  43 SW8       29.98F                  
BRIDGEPORT     CLOUDY    74  58  57 SW8       30.01F                  
DANBURY        PTSUNNY   73  56  54 W7        30.02F                  
GROTON         PTSUNNY   72  63  73 SW9       30.00F                  
NEW HAVEN      CLOUDY    74  62  66 VRB7      30.01F                  
CHESTER        FAIR      73  61  64 SW8       30.02F                  
MERIDEN        PTSUNNY   75  54  47 CALM      30.00F                  
WILLIMANTIC    PTSUNNY   75  51  43 W8        30.00F                  
OXFORD         PTSUNNY   72  57  59 VRB7      30.03F                  
$$

MEZ002-015-021-024-NHZ003-005-008-011-012-014-VTZ005-008-171900-
NORTHERN NEW ENGLAND
  
CITY           SKY/WX    TMP DP  RH WIND       PRES   REMARKS
PORTLAND ME    PTSUNNY   74  57  55 E9        29.97F                  
6HR MIN TEMP:  60; 6HR MAX TEMP:  75;                                

BANGOR ME      PTSUNNY   69  51  52 NW12      29.98S                  
CONCORD NH     MOSUNNY   75  54  47 N5        29.98F                  
MANCHESTER NH  MOSUNNY   77  53  43 W8        29.96F                  
NASHUA NH      MOSUNNY   76  57  51 VRB6      29.97F                  
PORTSMOUTH NH  PTSUNNY   76  55  47 S7        29.95F                  
JAFFREY NH     SUNNY     72  52  49 VRB6      30.01F                  
KEENE NH       SUNNY     74  57  55 CALM      29.99F                  
BURLINGTON VT  CLOUDY    62  47  57 N6        30.06F                  
MT. WASHINGTON FOG       43  43 100 W22         N/A  VSB 1/16         
$$

NYZ052-076-171900-
EASTERN NEW YORK
  
CITY           SKY/WX    TMP DP  RH WIND       PRES   REMARKS
ALBANY         CLOUDY    66  57  72 N7        30.02F                  
6HR MIN TEMP:  53; 6HR MAX TEMP:  67;                                

NEW YORK CITY  CLOUDY    77  59  53 VRB6      30.00F                  
6HR MIN TEMP:  68; 6HR MAX TEMP:  77;                                

$$
 
ANZALL-171900-
MARINE OBSERVATIONS
  
STATION/POSITION TIME  TEMP    WIND        PRES    VSBY  WAVE
                       AIR SEA DIR/SP/G                  HT/PER
                 (UTC) (F)     (DEG/KT/KT) (MB)    (MI)  (FT/S)
BOSTON BUOY      1750   68 66  160/  4/  6 1013.9F         2/11
BUZZARDS BAY     1700          200/ 12/ 13 1017.9F
NANTUCKET SOUND  1740      70  210/ 12/ 16   N/A
MASS BAY-STELLWA 1704   65     230/  8/ 10 1013.4F  1 7/8  3/11
ISLE OF SHOALS   1700   65     190/  7/  8 1014.9F
S OF BLOCK IS    1726      70                N/A           4/11
$$

......................KEY.........................
  SKY/WX - SKY CONDITION/PRESENT WEATHER
  TMP    - TEMPERATURE IN FAHRENHEIT
  DWPT   - DEWPOINT IN FAHRENHEIT
  RH     - RELATIVE HUMIDITY IN PERCENT
  WIND   - DIRECTION AND SPEED IN MPH
  PRES   - MEAN SEA LEVEL PRESSURE IN INCHES OF HG
  WCI    - WIND CHILL INDEX
  VSB    - VISIBILITY IN MILES
  HX     - HEAT INDEX
  TC     - TEMPERATURE IN CELSIUS
  VRB    - VARIABLE WIND DIRECTION
  N/A    - NOT AVAILABLE
  
      

Other recent Regional Weather Roundups

Sat Sep 19, 7:04am

Sat Sep 19, 6:04am

Sat Sep 19, 5:04am

Sat Sep 19, 4:04am

Sat Sep 19, 3:04am

Sat Sep 19, 2:04am

Sat Sep 19, 1:04am

Sat Sep 19, 12:04am

Fri Sep 18, 11:05pm

Fri Sep 18, 10:04pm

Fri Sep 18, 9:04pm

Fri Sep 18, 8:04pm

Fri Sep 18, 7:04pm

Fri Sep 18, 6:04pm

Fri Sep 18, 5:05pm

Fri Sep 18, 4:04pm

Fri Sep 18, 3:05pm

Fri Sep 18, 2:04pm

Fri Sep 18, 1:04pm

Fri Sep 18, 12:04pm

Fri Sep 18, 11:05am

Fri Sep 18, 10:05am

Fri Sep 18, 9:04am

Fri Sep 18, 8:04am

Fri Sep 18, 7:04am

Fri Sep 18, 6:04am

Fri Sep 18, 5:04am

Fri Sep 18, 4:04am

Fri Sep 18, 3:04am

Fri Sep 18, 2:04am

Fri Sep 18, 1:04am

Fri Sep 18, 12:04am

Thu Sep 17, 11:05pm

Thu Sep 17, 10:04pm

Thu Sep 17, 9:04pm

Thu Sep 17, 8:05pm

Thu Sep 17, 7:04pm

Thu Sep 17, 6:04pm

Thu Sep 17, 5:04pm

Thu Sep 17, 4:04pm

Thu Sep 17, 3:05pm

Thu Sep 17, 1:04pm

Thu Sep 17, 12:04pm

Thu Sep 17, 11:04am

Thu Sep 17, 10:04am

Thu Sep 17, 9:04am

Thu Sep 17, 8:04am

Thu Sep 17, 7:04am

Thu Sep 17, 6:04am

Thu Sep 17, 5:04am

Thu Sep 17, 4:04am

Thu Sep 17, 3:04am

Thu Sep 17, 2:05am

Thu Sep 17, 1:05am

Thu Sep 17, 12:04am

Wed Sep 16, 11:04pm

Wed Sep 16, 10:04pm

Wed Sep 16, 9:04pm

Wed Sep 16, 8:05pm

Wed Sep 16, 7:04pm

Wed Sep 16, 6:04pm

Wed Sep 16, 5:04pm

Wed Sep 16, 4:04pm

Wed Sep 16, 3:04pm

Wed Sep 16, 2:04pm

Wed Sep 16, 1:04pm

Wed Sep 16, 12:04pm

Wed Sep 16, 11:04am

Wed Sep 16, 10:04am

Wed Sep 16, 9:04am

Wed Sep 16, 8:04am

Wed Sep 16, 7:04am

Wed Sep 16, 6:04am

Wed Sep 16, 5:04am

Wed Sep 16, 4:04am

Wed Sep 16, 3:04am

Wed Sep 16, 2:04am

Wed Sep 16, 1:04am

Wed Sep 16, 12:05am

Tue Sep 15, 11:04pm

Tue Sep 15, 10:04pm

Tue Sep 15, 9:04pm

Tue Sep 15, 8:04pm

Tue Sep 15, 7:04pm

Tue Sep 15, 6:04pm

Tue Sep 15, 5:04pm

Tue Sep 15, 4:05pm

Tue Sep 15, 3:04pm

Tue Sep 15, 2:04pm

Tue Sep 15, 1:04pm

Tue Sep 15, 12:04pm

Tue Sep 15, 11:04am

Tue Sep 15, 10:04am

Tue Sep 15, 9:04am

Tue Sep 15, 8:04am

Tue Sep 15, 7:04am

Tue Sep 15, 6:04am

Tue Sep 15, 5:04am

Tue Sep 15, 4:04am

Tue Sep 15, 3:04am

Tue Sep 15, 2:04am

Tue Sep 15, 1:04am

Tue Sep 15, 12:05am

Mon Sep 14, 11:04pm

Mon Sep 14, 10:04pm

Mon Sep 14, 9:04pm

Mon Sep 14, 8:04pm

Mon Sep 14, 7:04pm

Mon Sep 14, 6:04pm

Mon Sep 14, 5:04pm

Mon Sep 14, 4:05pm

Mon Sep 14, 3:04pm

Mon Sep 14, 2:05pm

Mon Sep 14, 1:04pm

Mon Sep 14, 12:04pm

Mon Sep 14, 11:04am

Mon Sep 14, 10:05am

Mon Sep 14, 9:04am

Mon Sep 14, 8:04am

Mon Sep 14, 7:04am

Mon Sep 14, 6:04am

Mon Sep 14, 5:04am

Mon Sep 14, 4:04am

Mon Sep 14, 3:04am

Mon Sep 14, 2:04am

Mon Sep 14, 1:04am

Mon Sep 14, 12:04am

Sun Sep 13, 11:05pm

Sun Sep 13, 10:04pm

Sun Sep 13, 9:04pm

Sun Sep 13, 8:04pm

Sun Sep 13, 7:05pm

Sun Sep 13, 6:05pm

Sun Sep 13, 5:05pm

Sun Sep 13, 4:04pm

Sun Sep 13, 3:04pm

Sun Sep 13, 2:04pm

Sun Sep 13, 1:04pm

Sun Sep 13, 12:04pm

Sun Sep 13, 11:05am

Sun Sep 13, 10:04am

Sun Sep 13, 9:04am

Sun Sep 13, 8:04am

Sun Sep 13, 7:04am

Sun Sep 13, 6:04am

Sun Sep 13, 5:04am

Sun Sep 13, 4:04am

Sun Sep 13, 3:04am

Sun Sep 13, 2:04am

Sun Sep 13, 1:04am

Sun Sep 13, 12:04am

Sat Sep 12, 11:04pm

Sat Sep 12, 10:04pm

Sat Sep 12, 9:04pm

Sat Sep 12, 8:04pm

Sat Sep 12, 7:05pm

Sat Sep 12, 6:04pm

Sat Sep 12, 5:04pm

Sat Sep 12, 4:05pm

Sat Sep 12, 3:04pm

Sat Sep 12, 2:04pm

Sat Sep 12, 1:05pm

Sat Sep 12, 12:04pm

Sat Sep 12, 11:04am

Sat Sep 12, 10:04am

Sat Sep 12, 9:04am

Sat Sep 12, 8:04am

Meta data:

ID: dd59d30d-2821-475b-8e97-d875b4944e6c
Link: https://api.weather.gov/products/dd59d30d-2821-475b-8e97-d875b4944e6c